Flight Track Log - Related Links

Times and Time Zones

All times are in EDT time to prevent confusion due to time zone crossing. See the CPZ5752 flight status page for this flight to view local times or setup timezone preferences in your user account.

Time Position Orientation Groundspeed Altitude Reporting Facility
EDT Latitude Longitude Course Direction KTS MPH feet Rate Location/Type
Thu 06:38:25 PM 44.9000 -93.2667 126° Southeast 158 182 2,600  Level Minneapolis TRACON
Thu 06:39:31 PM 44.8833 -93.3500 254° West 218 251 4,900 1,737 Climbing Minneapolis TRACON
Thu 06:40:57 PM 44.8089 -93.4336 219° Southwest 261 300 7,000 2,149 Climbing Minneapolis Center
Thu 06:41:00 PM 44.6363 -92.7483 157° South  Level Estimated
Thu 06:41:59 PM 44.7400 -93.4731 202° Southwest 274 315 10,200  Level Minneapolis Center
Thu 06:42:00 PM 44.5746 -92.6306 152° Southeast  Level Estimated
Thu 06:43:00 PM 44.5128 -92.5131 126° Southeast  Level Estimated
Thu 06:43:01 PM 44.6678 -93.4022 145° Southeast 334 384 11,800  Level Minneapolis Center
Thu 06:44:03 PM 44.5772 -93.2950 140° Southeast 359 413 14,600 2,592 Climbing Minneapolis Center
Thu 06:45:06 PM 44.4969 -93.2017 140° Southeast 375 432 17,200 2,208 Climbing Minneapolis Center
Thu 06:46:08 PM 44.4156 -93.1058 140° Southeast 384 442 19,200 1,935 Climbing Minneapolis Center
Thu 06:47:10 PM 44.3328 -93.0100 140° Southeast 386 444 21,200 1,790 Climbing Minneapolis Center
Thu 06:48:12 PM 44.2442 -92.9131 142° Southeast 401 461 22,900 1,790 Climbing Minneapolis Center
Thu 06:49:14 PM 44.1225 -92.8292 154° Southeast 405 466 24,900 1,645 Climbing Minneapolis Center
Thu 06:50:16 PM 44.0192 -92.7592 154° Southeast 409 471 26,300 1,258 Climbing Minneapolis Center
Thu 06:51:18 PM 43.9128 -92.6864 154° Southeast 421 484 27,500 1,161 Climbing Minneapolis Center
Thu 06:52:20 PM 43.8053 -92.6125 154° Southeast 427 491 28,700 1,113 Climbing Minneapolis Center
Thu 06:53:22 PM 43.7011 -92.5264 149° Southeast 434 499 29,800 1,200 Climbing Minneapolis Center
Thu 06:54:05 PM 43.6192 -92.4525 147° Southeast 442 509 30,800 686 Climbing Chicago Center
Thu 06:55:07 PM 43.5164 -92.3503 144° Southeast 443 510 31,000 96 Climbing Chicago Center
Thu 06:56:10 PM 43.4192 -92.2594 146° Southeast 442 509 31,000  Level Chicago Center
Thu 06:57:12 PM 43.2992 -92.1458 145° Southeast 440 506 31,000  Level Chicago Center
Thu 06:58:14 PM 43.1997 -92.0542 146° Southeast 438 504 31,000  Level Chicago Center
Thu 06:59:16 PM 43.0992 -91.9608 146° Southeast 438 504 31,000  Level Chicago Center
Thu 07:00:19 PM 42.9992 -91.8683 146° Southeast 438 504 31,000  Level Chicago Center
Thu 07:01:21 PM 42.9006 -91.7769 146° Southeast 437 503 31,000  Level Chicago Center
Thu 07:02:23 PM 42.8097 -91.6550 135° Southeast 440 506 31,000  Level Chicago Center
Thu 07:03:25 PM 42.7208 -91.5225 132° Southeast 442 509 31,000  Level Chicago Center
Thu 07:04:27 PM 42.6178 -91.3733 133° Southeast 451 519 31,000  Level Chicago Center
Thu 07:05:29 PM 42.5344 -91.2528 133° Southeast 446 513 31,000 -672 Level Chicago Center
Thu 07:06:32 PM 42.4500 -91.1306 133° Southeast 446 513 29,600 -1,728 Descending Chicago Center
Thu 07:07:34 PM 42.3714 -91.0169 133° Southeast 426 490 27,400 -2,129 Descending Chicago Center
Thu 07:08:36 PM 42.2950 -90.9061 133° Southeast 411 473 25,200 -1,645 Descending Chicago Center
Thu 07:09:38 PM 42.2136 -90.8069 138° Southeast 397 457 24,000 -581 Descending Chicago Center
Thu 07:10:40 PM 42.1047 -90.7278 152° Southeast 375 432 24,000 -194 Level Chicago Center
Thu 07:11:42 PM 42.0125 -90.6639 153° Southeast 375 432 23,600 -774 Descending Chicago Center
Thu 07:12:44 PM 41.9219 -90.5997 152° Southeast 372 428 22,400 -1,248 Descending Chicago Center
Thu 07:13:47 PM 41.8356 -90.5364 151° Southeast 359 413 21,000 -672 Descending Chicago Center
Thu 07:14:49 PM 41.7356 -90.4533 148° Southeast 358 412 21,000  Level Chicago Center
Thu 07:15:51 PM 41.6508 -90.3867 150° Southeast 356 410 21,000  Level Chicago Center
Thu 07:16:53 PM 41.5700 -90.3089 144° Southeast 357 411 21,000  Level Chicago Center
Thu 07:17:55 PM 41.4992 -90.2089 133° Southeast 368 423 21,000  Level Chicago Center
Thu 07:18:57 PM 41.4261 -90.1103 135° Southeast 370 426 21,000  Level Chicago Center
Thu 07:19:59 PM 41.3547 -90.0100 133° Southeast 371 427 21,000 -528 Level Chicago Center
Thu 07:21:02 PM 41.3039 -89.8856 119° Southeast 382 440 19,900 -1,248 Descending Chicago Center
Thu 07:22:04 PM 41.2433 -89.7392 119° Southeast 378 435 18,400 -1,210 Descending Chicago Center
Thu 07:23:06 PM 41.2147 -89.6061 106° East 379 436 17,400 -1,016 Descending Chicago Center
Thu 07:24:08 PM 41.2028 -89.4686 97° East 377 434 16,300 -1,016 Descending Chicago Center
Thu 07:25:10 PM 41.1903 -89.3344 97° East 371 427 15,300 -919 Descending Chicago Center
Thu 07:26:12 PM 41.1778 -89.2036 97° East 358 412 14,400 -1,355 Descending Chicago Center
Thu 07:27:14 PM 41.2128 -89.0786 70° East 362 417 12,500 -1,790 Descending Chicago Center
Thu 07:28:16 PM 41.2633 -88.9711 58° Northeast 349 402 10,700 -1,392 Descending Chicago Center
Thu 07:29:19 PM 41.3028 -88.8406 68° East 308 354 9,600 -960 Descending Chicago Center
Thu 07:30:21 PM 41.3261 -88.7317 74° East 306 352 8,700 -871 Descending Chicago Center
Thu 07:31:23 PM 41.3517 -88.6169 73° East 302 348 7,800 -919 Descending Chicago Center
Thu 07:32:25 PM 41.3794 -88.5119 71° East 299 344 6,800 -823 Descending Chicago Center
Thu 07:33:27 PM 41.4075 -88.4014 71° East 295 339 6,100 -339 Descending Chicago Center
Thu 07:34:29 PM 41.4336 -88.2986 71° East 294 338 6,100  Level Chicago Center
Thu 07:35:31 PM 41.4611 -88.1906 71° East 292 336 6,100 -480 Level Chicago Center
Thu 07:36:34 PM 41.4872 -88.0894 71° East 290 334 5,100 -960 Descending Chicago Center
Thu 07:37:36 PM 41.5142 -87.9856 71° East 281 323 4,100 -871 Descending Chicago Center
Thu 07:38:38 PM 41.5386 -87.8881 71° East 280 322 3,300 -484 Descending Chicago Center
Thu 07:39:40 PM 41.5528 -87.7825 80° East 273 314 3,100 -97 Descending Chicago Center
Thu 07:40:42 PM 41.5789 -87.6939 68° East 271 312 3,100 -48 Level Chicago Center
Thu 07:41:44 PM 41.6283 -87.6222 47° Northeast 243 280 3,000 -48 Descending Chicago Center
Thu 07:42:46 PM 41.6711 -87.6050 17° North 188 216 3,000 -145 Level Chicago Center
Thu 07:43:48 PM 41.7106 -87.6483 321° Northwest 175 201 2,700 -576 Descending Chicago Center
Thu 07:44:51 PM 41.7408 -87.6906 314° West 157 181 1,800 -768 Descending Chicago Center
Thu 07:45:53 PM 41.7661 -87.7272 313° West 130 150 1,100 -532 Descending Chicago Center
Thu 07:46:55 PM 41.7914 -87.7631 313° West 129 148 700 -387 Descending Chicago Center

Login

Don't have an account? Register now (free) for customized features, flight alerts, and more!